DAL69A KSAN-KLAX

Flight info

Callsign DAL69A
Flight time 0h 27m
Altitude 10000
Route CWARD2 SLI
Aircraft A20N/M-SDE2E3FGHIRWXY/LB1

Departure

Time 2026-04-24 21:44
Airport San Diego International Airport (KSAN)

Arrival

Time 2026-04-24 22:11
Airport Los Angeles International Airport (KLAX)
Time Latitude Longitude Altitude Speed Heading
2026-04-24 21:24 32.73250 -117.20604 26 ft 0 kts 180°
2026-04-24 21:36 32.73251 -117.20604 26 ft 1 kts 181°
2026-04-24 21:36 32.73254 -117.20604 26 ft 0 kts 183°
2026-04-24 21:36 32.73256 -117.20604 30 ft 3 kts 187°
2026-04-24 21:37 32.73293 -117.20577 28 ft 8 kts 239°
2026-04-24 21:37 32.73297 -117.20569 28 ft 0 kts 243°
2026-04-24 21:37 32.73297 -117.20570 29 ft 1 kts 243°
2026-04-24 21:37 32.73304 -117.20585 29 ft 6 kts 316°
2026-04-24 21:38 32.73372 -117.20558 25 ft 14 kts 12°
2026-04-24 21:38 32.73490 -117.20528 21 ft 21 kts 40°
2026-04-24 21:38 32.73561 -117.20423 21 ft 0 kts 60°
2026-04-24 21:39 32.73562 -117.20422 21 ft 1 kts 62°
2026-04-24 21:39 32.73570 -117.20291 25 ft 36 kts 100°
2026-04-24 21:39 32.73468 -117.19868 27 ft 68 kts 105°
2026-04-24 21:40 32.73329 -117.19299 26 ft 72 kts 107°
2026-04-24 21:40 32.73194 -117.18746 27 ft 64 kts 105°
2026-04-24 21:40 32.73092 -117.18315 25 ft 41 kts 101°
2026-04-24 21:40 32.73015 -117.17989 20 ft 43 kts 108°
2026-04-24 21:41 32.72888 -117.17709 19 ft 30 kts 92°
2026-04-24 21:41 32.72940 -117.17614 22 ft 0 kts
2026-04-24 21:43 32.72959 -117.17607 22 ft 8 kts 19°
2026-04-24 21:43 32.73027 -117.17629 22 ft 14 kts 299°
2026-04-24 21:43 32.73079 -117.17821 22 ft 52 kts 286°
2026-04-24 21:43 32.73234 -117.18488 25 ft 114 kts 288°
2026-04-24 21:44 32.73496 -117.19573 151 ft 148 kts 285°
2026-04-24 21:44 32.73791 -117.20672 923 ft 143 kts 285°
2026-04-24 21:44 32.74250 -117.21781 1412 ft 159 kts 309°
2026-04-24 21:44 32.75011 -117.22700 2130 ft 154 kts 300°
2026-04-24 21:45 32.75635 -117.23824 2571 ft 178 kts 301°
2026-04-24 21:45 32.76398 -117.25131 3106 ft 196 kts 304°
2026-04-24 21:45 32.77216 -117.26461 4024 ft 196 kts 306°
2026-04-24 21:45 32.78031 -117.27725 4852 ft 191 kts 308°
2026-04-24 21:46 32.78878 -117.28971 5434 ft 196 kts 308°
2026-04-24 21:46 32.79735 -117.30241 6068 ft 199 kts 300°
2026-04-24 21:46 32.80346 -117.31710 6653 ft 202 kts 299°
2026-04-24 21:46 32.81207 -117.33032 7297 ft 201 kts 305°
2026-04-24 21:47 32.81981 -117.34403 7940 ft 199 kts 296°
2026-04-24 21:47 32.82674 -117.35839 8440 ft 209 kts 311°
2026-04-24 21:47 32.83779 -117.37054 8814 ft 219 kts 302°
2026-04-24 21:47 32.84589 -117.38522 9649 ft 208 kts 304°
2026-04-24 21:48 32.85614 -117.39863 9928 ft 229 kts 312°
2026-04-24 21:48 32.86700 -117.41402 9972 ft 261 kts 301°
2026-04-24 21:48 32.87749 -117.43359 9966 ft 300 kts 300°
2026-04-24 21:48 32.88954 -117.45567 9964 ft 336 kts 302°
2026-04-24 21:49 32.90347 -117.47926 9964 ft 367 kts 303°
2026-04-24 21:49 32.91925 -117.50456 9957 ft 395 kts 305°
2026-04-24 21:49 32.93643 -117.53141 9958 ft 418 kts 305°
2026-04-24 21:49 32.95399 -117.55862 10987 ft 408 kts 305°
2026-04-24 21:50 32.97127 -117.58502 12079 ft 402 kts 305°
2026-04-24 21:50 32.98868 -117.61116 12883 ft 404 kts 305°
2026-04-24 21:50 33.00674 -117.63733 13184 ft 418 kts 307°
2026-04-24 21:50 33.02544 -117.66355 13894 ft 413 kts 307°
2026-04-24 21:51 33.04404 -117.68955 14354 ft 411 kts 307°
2026-04-24 21:51 33.06250 -117.71531 14672 ft 413 kts 307°
2026-04-24 21:51 33.08134 -117.74143 14794 ft 412 kts 307°
2026-04-24 21:51 33.10009 -117.76741 14636 ft 418 kts 307°
2026-04-24 21:52 33.11918 -117.79390 15067 ft 419 kts 307°
2026-04-24 21:52 33.13935 -117.81915 15673 ft 428 kts 316°
2026-04-24 21:52 33.16471 -117.83849 16073 ft 445 kts 330°
2026-04-24 21:52 33.19497 -117.84808 16814 ft 450 kts 343°
2026-04-24 21:53 33.22528 -117.85514 17554 ft 450 kts 342°
2026-04-24 21:53 33.25609 -117.86259 17931 ft 458 kts 342°
2026-04-24 21:53 33.28818 -117.87045 17842 ft 473 kts 342°
2026-04-24 21:53 33.32082 -117.87830 18097 ft 480 kts 343°
2026-04-24 21:54 33.35354 -117.88682 18370 ft 486 kts 342°
2026-04-24 21:54 33.38621 -117.89551 18407 ft 480 kts 341°
2026-04-24 21:54 33.41909 -117.90435 17846 ft 485 kts 342°
2026-04-24 21:54 33.45205 -117.91326 17479 ft 485 kts 342°
2026-04-24 21:55 33.48491 -117.92212 17192 ft 483 kts 342°
2026-04-24 21:55 33.51758 -117.93077 16941 ft 483 kts 342°
2026-04-24 21:55 33.55029 -117.93947 17458 ft 483 kts 342°
2026-04-24 21:55 33.58328 -117.94817 17806 ft 482 kts 342°
2026-04-24 21:56 33.61479 -117.95615 17975 ft 451 kts 342°
2026-04-24 21:56 33.64581 -117.96393 17687 ft 459 kts 342°
2026-04-24 21:56 33.67692 -117.97175 18468 ft 457 kts 342°
2026-04-24 21:56 33.70784 -117.97948 18909 ft 450 kts 342°
2026-04-24 21:57 33.73801 -117.98690 19182 ft 433 kts 342°
2026-04-24 21:57 33.76654 -117.99372 19432 ft 412 kts 342°
2026-04-24 21:57 33.79397 -118.00005 19617 ft 390 kts 342°
2026-04-24 21:57 33.81942 -118.00771 19456 ft 366 kts 330°
2026-04-24 21:58 33.84113 -118.02264 18701 ft 357 kts 314°
2026-04-24 21:58 33.85743 -118.04476 17723 ft 354 kts 297°
2026-04-24 21:58 33.86143 -118.05352 17365 ft 354 kts 291°
2026-04-24 21:59 33.84895 -118.19117 12683 ft 371 kts 271°
2026-04-24 21:59 33.85380 -118.22192 11660 ft 377 kts 288°
2026-04-24 22:00 33.86597 -118.24985 10708 ft 384 kts 304°
2026-04-24 22:00 33.88486 -118.27314 9754 ft 390 kts 320°
2026-04-24 22:00 33.90863 -118.28911 8772 ft 395 kts 337°
2026-04-24 22:00 33.93542 -118.29627 7975 ft 395 kts 354°
2026-04-24 22:01 33.96271 -118.29397 7205 ft 394 kts 11°
2026-04-24 22:01 33.98817 -118.28229 6507 ft 392 kts 28°
2026-04-24 22:01 34.00954 -118.26226 5756 ft 388 kts 46°
2026-04-24 22:01 34.02441 -118.23580 5219 ft 379 kts 66°
2026-04-24 22:02 34.03095 -118.20582 5012 ft 361 kts 82°
2026-04-24 22:02 34.03435 -118.17662 4829 ft 344 kts 82°
2026-04-24 22:02 34.03762 -118.14867 4638 ft 330 kts 82°
2026-04-24 22:02 34.04073 -118.12197 4390 ft 320 kts 82°
2026-04-24 22:03 34.04362 -118.09583 4124 ft 309 kts 88°
2026-04-24 22:03 34.04058 -118.07087 3881 ft 297 kts 112°
2026-04-24 22:03 34.02958 -118.05063 3625 ft 284 kts 138°
2026-04-24 22:03 34.01303 -118.03877 3385 ft 273 kts 165°
2026-04-24 22:04 33.99465 -118.03741 3137 ft 263 kts 192°
2026-04-24 22:04 33.97825 -118.04615 2956 ft 255 kts 212°
2026-04-24 22:04 33.96241 -118.05401 2923 ft 240 kts 199°
2026-04-24 22:04 33.94842 -118.06339 2919 ft 222 kts 224°
2026-04-24 22:05 33.94014 -118.07816 2920 ft 210 kts 250°
2026-04-24 22:05 33.93834 -118.09526 2918 ft 205 kts 275°
2026-04-24 22:05 33.94290 -118.11149 2967 ft 208 kts 300°
2026-04-24 22:05 33.95155 -118.12562 2947 ft 211 kts 306°
2026-04-24 22:06 33.96045 -118.13961 2942 ft 212 kts 306°
2026-04-24 22:06 33.96927 -118.15382 2931 ft 209 kts 300°
2026-04-24 22:06 33.97348 -118.17005 2936 ft 202 kts 269°
2026-04-24 22:06 33.97209 -118.18598 2933 ft 181 kts 261°
2026-04-24 22:07 33.97075 -118.19997 2934 ft 160 kts 261°
2026-04-24 22:07 33.96936 -118.21355 2945 ft 170 kts 261°
2026-04-24 22:07 33.96790 -118.22781 2938 ft 170 kts 261°
2026-04-24 22:07 33.96646 -118.24195 2945 ft 170 kts 261°
2026-04-24 22:08 33.96502 -118.25614 2944 ft 171 kts 261°
2026-04-24 22:08 33.96361 -118.27016 2944 ft 161 kts 261°
2026-04-24 22:08 33.96229 -118.28304 2745 ft 152 kts 261°
2026-04-24 22:08 33.96101 -118.29561 2409 ft 149 kts 259°
2026-04-24 22:09 33.95976 -118.30788 2057 ft 144 kts 259°
2026-04-24 22:09 33.95859 -118.31939 1942 ft 136 kts 259°
2026-04-24 22:09 33.95729 -118.33150 1731 ft 153 kts 259°
2026-04-24 22:09 33.95618 -118.34389 1482 ft 148 kts 263°
2026-04-24 22:10 33.95539 -118.35620 1062 ft 148 kts 261°
2026-04-24 22:10 33.95416 -118.36835 849 ft 150 kts 257°
2026-04-24 22:10 33.95251 -118.38072 526 ft 144 kts 259°
2026-04-24 22:10 33.95107 -118.39193 310 ft 131 kts 261°
2026-04-24 22:11 33.95006 -118.40233 166 ft 122 kts 260°
2026-04-24 22:11 33.94895 -118.41238 125 ft 106 kts 263°
2026-04-24 22:11 33.94801 -118.41890 122 ft 58 kts 233°
2026-04-24 22:11 33.94643 -118.41982 125 ft 5 kts 158°